Regional Weather Roundup
Issued by NWS Memphis, TN

Home | Current Version | Previous Version | Text Only | Print | Product List | Glossary On
Versions: 1 2 3 4 5 6 7 8 9 10 11 12 13 14 15 16 17 18 19 20 21 22 23 24 25 26 27 28 29 30 31 32 33 34 35 36 37 38 39 40 41 42 43 44 45 46 47 48 49 50
000
ASUS44 KMEG 221210
RWRMEG
MEMPHIS CWA HOURLY WEATHER ROUNDUP
NATIONAL WEATHER SERVICE MEMPHIS TN
700 AM CDT MON JUL 22 2019

...WEST TENNESSEE...

CITY           SKY/WX    TMP DP  RH WIND       PRES   REMARKS
MEMPHIS INTL   CLOUDY    76  75  97 S7        29.94S
6HR MIN TEMP:  76; 6HR MAX TEMP:  79;

NWS MEMPHIS      N/A     77 N/A N/A MISG        N/A
JACKSON        FAIR      76  75  97 SW6       29.95R
6HR MIN TEMP:  75; 6HR MAX TEMP:  77;

COVINGTON      PTSUNNY   77  77 100 SW10      29.92R
SOMERVILLE     CLOUDY    75  75 100 S7        29.94R
BOLIVAR        CLOUDY    75  73  94 S6        29.95R
LEXINGTON      CLOUDY    75  75 100 S5        29.95R
SELMER         CLOUDY    75  73  94 SW5       29.96R FOG
DYERSBURG      FAIR      76  76 100 CALM      29.94R
6HR MIN TEMP:  75; 6HR MAX TEMP:  76;

UNION CITY     SUNNY     77  75  94 S7        29.91R FOG
PARIS          CLOUDY    75  75 100 SW7       29.94R
HUNTINGDON     MOSUNNY   75  75 100 SW5       29.94R


...EASTERN ARKANSAS...

CITY           SKY/WX    TMP DP  RH WIND       PRES   REMARKS
JONESBORO      MOCLDY    78  75  90 SW10      29.91R
6HR MIN TEMP:  77; 6HR MAX TEMP:  81;

WEST MEMPHIS   PTSUNNY   78  77  96 S6        29.94R
6HR MIN TEMP:  77; 6HR MAX TEMP:  79;

BATESVILLE     MOCLDY    77  74  90 W5        29.95R
6HR MIN TEMP:  76; 6HR MAX TEMP:  81;

NEWPORT        FAIR      77  76  96 S9        29.92R
6HR MIN TEMP:  76; 6HR MAX TEMP:  79;

WALNUT RIDGE   FAIR      78  77  96 W3        29.92R
6HR MIN TEMP:  77; 6HR MAX TEMP:  80;

BLYTHEVILLE    FAIR      78  74  87 CALM      29.92R
6HR MIN TEMP:  77; 6HR MAX TEMP:  79;

SEARCY         MOCLDY    77  77 100 W5        29.95R
6HR MIN TEMP:  76; 6HR MAX TEMP:  78;

STUTTGART      FAIR      76  74  93 SW12      29.94F
6HR MIN TEMP:  76; 6HR MAX TEMP:  78;

PINE BLUFF     FAIR      74  71  91 SW7       29.96R
6HR MIN TEMP:  74; 6HR MAX TEMP:  76;

MONTICELLO     FAIR      75  72  90 SW6       29.98R
6HR MIN TEMP:  75; 6HR MAX TEMP:  76;



...NORTH MISSISSIPPI...

CITY           SKY/WX    TMP DP  RH WIND       PRES   REMARKS
TUPELO         CLOUDY    76  73  91 S7        29.98R
6HR MIN TEMP:  75; 6HR MAX TEMP:  77;

OXFORD         PTSUNNY   73  72  94 VRB5      29.99R
BATESVILLE     CLOUDY    75  73  94 SW6       29.98R
OLIVE BRANCH   CLOUDY    75  73  94 SW7       29.96R
TUNICA           N/A     73  72  94 S8        29.97R
CLARKSDALE       N/A     75  75 100 S6        29.97R
CORINTH        PTSUNNY   75  73  94 CALM      29.96S
GREENWOOD      FAIR      73  72  96 S6        29.99R
6HR MIN TEMP:  72; 6HR MAX TEMP:  74;

COLUMBUS       CLOUDY    74  73  96 SW5       29.99R
6HR MIN TEMP:  73; 6HR MAX TEMP:  76;

STARKVILLE     CLOUDY    72  70  94 S5        30.01S
GOLDEN TRIANGL CLOUDY    73  72  94 SW7       30.01R
6HR MIN TEMP:  73; 6HR MAX TEMP:  75;



...SOUTHEAST MISSOURI...

CITY           SKY/WX    TMP DP  RH WIND       PRES   REMARKS
KENNETT        CLOUDY    79  77  94 SW7       29.91R
MALDEN         CLOUDY    77  73  88 MISG      29.93R
WEST PLAINS    MOCLDY    71  69  93 W5        29.98R
6HR MIN TEMP:  71; 6HR MAX TEMP:  80; 6HR PCP:  0.05;

POPLAR BLUFF   CLOUDY    76  74  93 N3        29.91R
6HR MIN TEMP:  74; 6HR MAX TEMP:  80;

CAPE GIRARDEAU PTSUNNY   74  71  91 NW6       29.93R
6HR MIN TEMP:  73; 6HR MAX TEMP:  75; 6HR PCP:  0.10;



...NORTHWEST ALABAMA...

CITY           SKY/WX    TMP DP  RH WIND       PRES   REMARKS
MUSCLE SHOALS  CLOUDY    77  73  87 SW3       30.00R
6HR MIN TEMP:  75; 6HR MAX TEMP:  77;



...MIDDLE TENNESSEE...

CITY           SKY/WX    TMP DP  RH WIND       PRES   REMARKS
NASHVILLE      CLOUDY    78  72  81 SW5       29.97R
6HR MIN TEMP:  77; 6HR MAX TEMP:  80;

CLARKSVILLE    PTSUNNY   77  75  93 SW7       29.93R
6HR MIN TEMP:  76; 6HR MAX TEMP:  79; 6HR PCP: TRACE;

COLUMBIA       PTSUNNY   75  75 100 S7        29.96S FOG
LAWRENCEBURG   CLOUDY    73  72  94 CALM      29.99S FOG
LEWISBURG      CLOUDY    75  73  94 S3        29.98R


...WESTERN KENTUCKY...

CITY           SKY/WX    TMP DP  RH WIND       PRES   REMARKS
PADUCAH        FAIR      75  72  90 SE3       29.91R
6HR MIN TEMP:  74; 6HR MAX TEMP:  75;

FORT CAMPBELL  PTSUNNY   77  77 100 SW8       29.93
6HR MIN TEMP:  76; 6HR MAX TEMP:  79; 6HR PCP: TRACE;



...CENTRAL ARKANSAS...

CITY           SKY/WX    TMP DP  RH WIND       PRES   REMARKS
LITTLE ROCK    MOCLDY    76  74  93 SW8       29.95R FOG
6HR MIN TEMP:  75; 6HR MAX TEMP:  78;



SKY/WX REPORTED AS FAIR MEANS FEW OR NO CLOUDS BELOW
12 THOUSAND FEET.




USA.gov is the U.S. government's official web portal to all federal, state and local government web resources and services.